Medicine Hat Airport, Alberta

Past 24 Hour Conditions

Date / Time
(MST)
Conditions Temp
(°F)
Humidity
(%)
Dew Point
(°F)
Wind
(mph)
Pressure
(inches)
Vis
(mi)
Wind Chill
24 November 2014
7:00 Mostly Cloudy 28 90 26 SSW 7 30.1 15 20
6:00 Cloudy 27 93 25 SW 7 30.1 15 19
5:00 Cloudy 26 92 24 WSW 5 30.0 10 21
4:00 Cloudy 27 93 25 W 11 30.0 10 16
3:00 Cloudy 28 91 26 W 9 30.0 10 20
2:00 Cloudy 31 85 27 calm 29.9 10 *
1:00 Cloudy 33 79 27 WNW 9 29.9 10 *
00:00 Cloudy 34 80 28 W 10 29.8 10 *
23 November 2014
23:00 Cloudy 32 86 28 SSW 7 29.8 10 25
22:00 Cloudy 33 79 28 SW 10 29.8 10 *
21:00 Mostly Cloudy 32 82 27 SSW 13 29.8 10 *
20:00 Mostly Cloudy 33 78 27 SSW 9 29.8 15 *
19:00 Cloudy 32 82 27 SSW 5 29.8 15 *
18:00 Cloudy 31 83 27 SW 6 29.8 15 26
17:00 Cloudy 30 85 26 SSW 7 29.8 15 23
16:00 Mostly Cloudy 33 76 26 SSW 4 29.8 30 *
15:00 Partly Cloudy 36 66 26 SSW 6 29.9 30 *
14:00 N/A 37   62 25 SSW 9 29.9 30 *
13:00 Mainly Sunny 36 66 26 SW 11 29.9 30 *
12:00 Mainly Sunny 33 70 25 SW 11 29.9 30 *
11:00 Mainly Sunny 32 69 23 WSW 9 30.0 30 *
10:00 Mainly Sunny 30 74 23 WSW 8 29.9 30 22
9:00 Mainly Sunny 24   83 20 WSW 7 29.9 30 16
8:00 Mostly Cloudy 24   82 19 W 4 29.9 30 18
7:00 Mostly Cloudy 25 90 23 WNW 7 29.9 15 17
N/A Not available
↑ Highest temperature
↓ Lowest temperature
* Value not significant.

If you require additional historical weather information, please visit Climate Data Online.

Date modified: